RH
12 12 13 13 18 24 31 32 25 26 28 24 20 29 34 27 35 42 10 9 15 30 30 38 33 34 39 51 48 51 54 56 59 60 57 54 52 50 50 49 45 39 35 32 30 30 33 38 41
11 11 12 12 25 22 24 26 27 25 24 24 21 18 24 25 19 9 6 7 8 16 33 49 60 55 36 45 52 46 49 50 50 50 51 52 50 45 44 47 48 46 43 38 35 35 38 38 40
11 11 11 12 26 20 23 26 26 24 24 17 19 16 23 18 13 6 6 6 6 8 13 47 69 55 33 45 45 45 40 45 44 39 35 34 34 35 31 33 42 47 47 44 41 39 38 42 47
10 11 12 23 25 24 19 20 18 17 13 10 11 11 11 11 8 5 5 6 6 6 9 21 54 49 48 32 46 56 34 42 40 36 36 36 38 32 25 41 42 39 46 45 44 43 47 50 42
8 10 17 25 26 23 18 17 15 15 11 9 9 12 12 9 7 5 5 6 6 6 8 9 13 30 54 40 28 56 51 39 36 32 32 29 25 21 18 18 40 43 40 44 44 45 45 40 34
9 11 17 23 25 22 18 18 16 13 10 9 12 14 12 10 8 8 6 6 6 6 7 8 9 20 45 47 26 37 93 31 42 18 16 15 14 14 13 12 18 30 38 41 42 40 36 28 17
10 12 19 21 22 20 16 16 14 13 11 10 12 15 14 13 11 10 8 7 7 7 7 8 8 9 12 15 28 45 64 18 17 13 12 12 11 11 11 11 13 18 22 24 25 23 18 14 11
10 12 18 17 19 22 16 15 12 11 13 12 14 16 16 16 15 13 10 9 9 8 8 8 8 9 10 11 13 14 14 14 12 12 12 12 11 11 11 11 12 14 16 16 14 13 12 11 10
12 14 18 18 9 18 16 16 16 12 11 14 16 17 17 16 15 14 13 12 11 11 10 9 9 9 10 10 11 12 12 12 12 12 12 12 12 12 11 11 11 12 12 12 11 10 10 10 10
11 12 14 14 8 15 17 18 16 15 14 14 17 18 18 18 17 17 17 16 14 13 13 11 10 10 10 11 11 12 12 12 12 12 12 12 12 12 12 11 11 11 12 12 12 11 11 11 11
5 6 6 5 6 17 18 18 16 15 15 15 16 17 19 20 19 18 18 18 17 15 14 14 12 11 12 12 12 12 12 13 13 13 13 13 13 12 12 12 11 11 10 10 10 10 11 11 11
6 5 5 5 6 16 16 19 17 16 16 16 15 16 18 20 21 19 19 19 20 18 16 16 15 14 13 13 13 13 13 13 13 14 14 13 13 13 12 12 12 11 10 10 10 10 10 10 11
6 6 6 6 7 13 16 21 20 18 16 16 16 17 18 20 21 20 18 18 19 20 18 18 18 16 15 14 15 15 15 15 15 15 14 14 13 14 13 12 12 11 11 11 11 11 11 11 11
7 7 7 7 9 13 20 21 21 17 17 18 18 17 19 19 22 22 20 20 21 21 21 19 19 19 17 17 16 16 16 16 16 16 15 15 14 14 14 13 12 12 12 12 12 12 12 12 12
9 8 8 8 8 16 20 20 18 17 19 20 20 19 18 19 21 23 24 21 21 23 22 22 19 20 19 18 18 17 17 17 16 16 16 16 15 15 14 14 14 13 12 12 12 12 12 13 14
13 10 15 10 11 12 15 22 16 20 22 20 20 20 20 19 21 22 23 23 20 20 22 22 20 19 19 18 18 18 17 18 17 17 16 16 16 15 15 14 14 15 14 13 12 12 12 12 14
19 29 17 19 15 16 19 25 21 21 20 21 20 20 21 20 20 21 22 22 20 19 20 22 21 20 18 18 18 18 19 19 18 18 17 17 16 15 15 14 14 14 15 15 15 14 13 13 13
37 35 27 25 22 24 26 24 22 21 21 21 21 21 23 23 21 21 22 21 18 18 18 20 21 19 17 17 19 20 20 20 20 20 20 20 18 16 15 15 14 14 14 14 16 16 16 16 15
29 30 28 25 25 25 24 25 24 23 24 24 22 22 22 22 22 22 20 20 18 17 17 18 20 20 19 19 20 21 22 22 23 24 24 23 22 20 18 17 16 15 14 14 14 16 17 18 18
33 31 30 27 27 27 26 25 25 26 24 24 24 24 23 23 22 20 20 18 16 17 18 18 19 20 21 21 21 21 22 24 25 26 26 26 26 25 24 24 23 22 21 20 18 17 16 17 18
36 31 29 28 25 26 29 30 26 22 18 13 10 8 9 10 15 22 22 21 18 18 19 18 18 19 20 21 21 23 26 26 26 26 26 28 29 30 31 31 31 30 30 29 29 27 26 24 23
41 36 31 29 28 37 30 27 24 20 20 17 13 6 6 7 8 10 12 20 25 24 22 23 23 20 21 23 26 28 32 30 30 32 34 35 36 37 36 35 36 36 35 34 34 33 33 32 30
44 38 36 34 35 34 34 35 22 18 20 18 14 8 8 12 12 10 12 14 20 26 27 26 26 28 28 29 32 35 36 36 36 39 41 42 42 42 39 39 38 36 36 37 36 34 31 30 30
40 39 38 40 38 46 36 33 20 16 13 10 9 9 12 16 10 9 11 14 16 26 31 33 32 31 34 36 38 41 43 44 47 48 46 44 39 37 37 37 38 38 38 36 34 34 35 34 34
41 36 61 65 76 44 34 36 22 14 12 10 8 9 11 10 9 9 15 20 22 24 32 36 37 35 37 40 44 48 53 54 53 52 45 43 42 41 41 41 42 42 43 43 43 43 43 44 44
37 32 53 69 56 33 32 41 21 15 12 10 9 9 9 9 10 11 18 26 29 31 33 37 39 39 40 43 46 49 52 53 52 47 44 43 43 46 48 49 49 49 49 49 48 48 47 46 44
43 43 31 27 32 40 37 25 16 11 9 10 8 8 8 8 9 14 23 31 33 34 36 38 41 42 44 45 48 50 49 46 44 43 43 46 48 50 49 48 49 44 40 36 30 28 30 34 36
30 32 36 28 57 30 34 39 14 8 7 7 7 6 6 7 10 15 25 34 36 36 36 36 37 41 43 44 44 43 42 42 44 46 49 50 52 51 50 47 43 36 31 28 30 35 38 38 37
41 38 32 30 27 46 16 19 7 7 6 6 6 6 6 9 14 23 32 38 40 40 39 39 40 40 41 40 39 40 43 46 50 54 55 55 53 48 45 41 36 35 38 42 42 39 36 33 30
36 29 24 29 43 26 31 17 8 8 8 8 8 8 9 11 16 24 35 43 44 43 43 43 41 40 42 44 47 50 53 56 57 58 56 51 48 46 43 40 41 46 46 44 39 34 30 25 20
Wind_Speed
12 11 10 8 3 2 4 3 4 4 3 4 4 4 3 1 1 2 5 9 10 13 11 12 12 13 13 13 12 12 10 9 8 8 7 7 7 7 8 10 10 10 11 11 12 11 11 10 10
14 12 10 8 2 6 6 4 5 7 7 5 3 3 2 1 2 3 6 9 10 11 13 14 13 12 13 13 12 11 10 9 7 5 5 5 4 4 4 5 8 9 9 9 9 8 7 6 6
17 14 11 6 4 5 4 6 8 7 6 4 4 5 3 2 4 5 8 9 10 10 11 13 14 13 13 13 12 9 8 7 6 5 4 4 4 4 4 3 4 6 7 7 6 5 4 3 3
19 16 11 6 6 7 7 6 5 5 5 5 5 4 4 4 6 8 10 11 12 11 12 13 14 13 13 13 14 10 8 7 6 5 5 4 4 4 5 5 4 5 5 5 4 3 1 2 4
20 18 10 7 9 9 6 8 7 5 6 7 7 4 6 5 7 7 10 11 12 12 13 13 14 14 13 13 13 11 9 8 6 4 4 3 3 3 3 4 4 4 5 4 3 1 1 2 3
21 20 11 10 11 9 7 7 8 7 7 7 7 6 6 7 7 7 8 9 9 11 11 11 11 12 12 11 12 12 10 7 6 5 4 4 2 2 3 4 4 4 3 3 4 3 2 1 1
21 21 12 11 12 11 9 7 8 8 9 10 8 6 7 6 7 7 8 9 9 9 9 9 8 8 9 8 8 10 9 7 6 5 5 4 4 3 3 2 3 4 4 4 3 3 2 1 2
22 21 15 15 15 11 12 8 8 10 10 10 9 7 7 7 6 7 8 8 8 8 9 9 10 10 8 7 7 8 7 7 6 6 6 4 4 4 4 4 3 3 3 3 3 2 2 2 2
23 20 18 18 15 16 14 11 10 10 11 10 10 9 8 7 7 7 7 7 7 8 8 9 9 9 10 10 8 8 8 8 7 6 5 5 5 4 4 4 3 4 3 4 4 4 3 2 1
26 28 23 21 15 15 14 12 11 10 11 12 13 10 9 8 8 9 8 8 9 9 9 9 9 9 9 9 9 8 9 8 7 6 5 5 4 4 4 4 3 3 3 4 4 3 2 2 1
28 28 24 19 19 17 15 14 12 11 10 11 11 12 11 9 9 9 9 10 10 10 10 10 10 10 10 10 10 9 9 8 8 7 7 6 5 5 4 4 4 4 4 4 4 3 3 3 3
26 26 22 19 20 19 17 16 14 13 13 13 14 13 12 9 8 8 9 10 10 12 12 11 11 11 11 11 11 10 9 9 8 7 7 6 7 7 7 6 5 5 5 5 5 6 6 5 6
26 23 22 21 20 21 19 19 16 15 14 15 14 14 14 12 11 10 11 12 12 11 12 12 12 12 12 12 12 12 11 9 9 9 9 9 9 9 8 7 7 7 7 7 7 8 8 8 8
24 20 24 22 22 22 21 19 17 16 15 15 15 16 15 16 14 12 9 10 13 14 14 13 13 13 13 13 13 12 11 11 11 10 10 10 10 10 9 9 9 10 10 10 10 10 10 10 10
19 24 24 24 24 24 22 21 20 18 15 15 18 18 18 17 17 15 15 15 17 17 17 16 15 14 14 14 14 13 12 12 11 11 11 11 11 11 11 11 12 12 13 13 14 14 13 13 13
22 25 22 27 25 25 21 16 21 19 18 18 16 18 19 20 19 19 19 18 18 17 18 18 17 16 16 16 15 14 13 12 11 11 11 12 12 12 13 13 14 14 15 15 16 16 16 17 17
28 18 26 22 26 24 22 17 17 18 20 19 19 18 18 19 22 22 21 20 19 19 19 18 18 18 19 17 15 13 13 12 12 13 14 14 13 14 14 15 16 17 17 17 17 18 18 19 20
25 21 26 24 27 27 23 22 19 20 17 18 19 18 17 18 20 21 21 19 19 20 20 19 20 20 19 17 15 15 14 14 15 15 15 14 14 15 16 17 17 18 18 19 19 20 20 21 22
27 26 21 30 22 24 25 24 22 21 22 21 19 19 19 19 19 20 20 20 19 20 19 19 20 20 19 17 16 16 15 15 16 16 16 16 15 15 16 17 18 19 19 20 21 22 22 23 24
24 24 27 22 28 21 23 25 25 24 22 21 20 21 21 21 20 19 19 20 19 19 19 20 20 20 19 19 20 19 19 19 19 18 17 16 16 17 18 19 19 20 21 21 22 23 23 24 25
30 20 25 23 23 20 19 23 28 28 25 23 22 23 23 24 24 24 23 22 21 21 20 20 22 22 23 23 23 22 21 22 22 20 20 20 20 20 21 21 21 22 22 22 22 22 23 24 25
30 26 18 21 20 11 20 9 27 30 28 26 24 22 22 22 22 22 25 28 27 25 24 23 24 25 25 25 24 24 24 24 22 21 21 22 22 23 23 23 22 22 21 21 22 22 23 24 25
27 28 24 18 19 15 19 9 14 22 31 29 26 24 21 20 18 17 20 25 29 27 26 26 25 26 27 27 26 25 24 22 21 21 22 22 23 23 22 20 19 20 20 22 23 23 23 24 25
29 24 20 18 16 6 18 16 14 22 24 23 22 20 19 21 16 14 16 20 25 27 28 27 27 27 26 25 24 24 23 22 22 22 22 20 18 17 16 16 18 20 21 21 20 21 23 25 27
28 26 6 4 5 6 16 17 20 13 20 23 21 20 20 20 20 19 17 18 20 24 26 27 28 28 28 26 25 24 23 23 23 22 21 18 16 15 14 15 15 17 18 20 23 26 29 31 34
37 36 12 8 6 8 11 12 19 32 23 23 25 25 25 25 24 21 19 19 20 21 24 27 28 29 29 28 26 25 25 24 22 20 18 15 13 13 13 15 18 21 24 28 30 33 37 39 41
32 34 26 7 6 4 9 16 28 27 25 33 28 24 25 25 24 22 21 20 19 20 21 24 27 28 29 28 27 26 24 22 20 18 16 15 14 15 18 22 25 29 32 35 39 41 44 46 46
33 34 19 13 9 6 7 7 18 28 32 27 27 26 26 26 25 25 24 23 23 23 23 23 24 25 25 25 24 23 21 19 18 17 17 17 19 21 25 28 32 35 39 41 41 42 42 43 42
32 31 26 19 17 8 7 8 22 22 14 17 20 23 27 27 26 25 25 26 26 25 23 23 23 22 22 21 21 20 20 19 19 19 20 22 24 27 30 34 37 37 37 38 39 39 40 41 42
36 33 44 21 9 20 6 11 10 17 19 20 22 23 24 26 27 27 27 27 25 24 23 22 22 21 21 21 20 20 20 21 22 23 25 27 29 32 35 37 38 38 38 39 40 42 43 43 44
Wind_Direction
191 188 184 179 166 180 175 180 180 186 189 194 158 133 123 135 97 204 168 162 159 143 145 142 132 131 136 137 129 127 124 123 118 111 103 92 87 88 91 94 94 92 91 89 89 89 87 81 70
192 190 186 186 204 202 169 197 194 201 199 193 193 179 190 166 146 138 154 156 154 148 153 148 139 140 146 142 140 133 136 132 124 115 103 97 84 73 82 98 112 112 106 104 102 99 91 76 61
191 192 187 186 207 192 174 204 206 213 213 210 195 184 200 196 185 159 152 152 155 152 152 147 151 151 152 147 137 142 143 138 132 124 115 97 88 86 77 96 122 123 123 124 124 122 107 75 47
188 190 192 194 197 189 180 187 195 192 197 192 175 176 188 176 175 161 159 160 158 157 153 153 153 153 151 155 149 149 149 145 139 131 120 107 90 77 78 89 116 151 152 152 150 143 106 7 8
186 188 193 201 193 192 191 182 182 177 181 181 179 187 175 160 164 170 167 163 162 163 161 158 154 155 155 160 161 153 146 152 144 145 135 126 113 89 77 75 89 133 159 168 182 212 301 331 355
182 187 192 194 189 196 202 197 187 177 173 171 169 170 178 175 171 172 174 168 172 169 168 161 158 157 156 159 162 154 148 148 141 148 150 134 108 96 100 105 99 100 127 163 175 188 191 203 16
190 190 199 194 194 207 210 206 193 179 168 168 169 168 180 184 181 184 183 175 175 174 170 159 150 147 150 158 162 155 156 155 145 142 142 137 131 131 120 125 135 143 141 152 165 177 176 103 71
195 200 206 205 203 202 203 195 181 174 173 169 166 169 183 189 190 190 194 188 179 177 171 168 162 153 150 151 159 154 155 149 148 148 141 141 148 158 159 158 158 164 155 154 155 156 156 150 138
200 205 213 213 210 209 203 195 185 179 177 174 170 166 172 176 180 184 195 193 187 183 181 175 171 164 161 158 160 161 155 158 162 156 151 157 165 172 176 172 173 178 173 167 165 162 170 187 184
206 212 217 220 219 205 200 200 196 189 183 179 176 179 182 184 187 190 198 203 196 190 187 183 177 173 172 171 169 171 171 170 173 168 174 183 193 192 197 191 197 207 205 205 199 199 197 227 251
210 218 218 219 211 204 206 205 196 193 190 186 189 197 197 195 198 203 202 204 205 203 195 188 182 182 179 181 184 186 188 186 189 192 200 202 211 222 223 222 220 219 219 224 232 234 239 249 271
211 216 216 216 209 207 209 206 201 195 194 196 201 202 203 204 205 206 209 206 204 204 200 194 193 191 188 188 192 199 203 204 206 215 222 226 225 231 233 235 239 243 246 244 246 253 262 273 279
211 213 214 213 208 206 207 207 209 210 207 207 205 202 203 206 208 209 213 213 211 210 205 202 201 200 199 197 201 206 211 214 218 225 232 234 241 248 251 257 259 259 256 254 253 258 265 273 281
210 212 210 209 207 206 208 212 214 218 216 212 213 214 208 206 207 212 212 210 207 209 209 207 204 205 208 208 210 212 217 222 227 233 240 245 251 259 264 267 266 267 268 268 269 271 273 276 278
208 206 207 209 209 210 214 223 221 223 223 219 218 215 215 214 213 211 210 209 211 208 207 209 208 208 210 214 215 218 223 231 237 242 246 255 260 263 268 269 268 268 269 272 275 276 277 277 276
208 204 204 210 210 213 212 228 228 226 226 224 219 217 220 220 214 216 220 224 224 221 216 213 212 214 217 218 219 221 227 236 243 249 253 255 257 262 265 267 269 270 270 270 272 274 275 275 276
202 204 207 212 209 211 211 224 223 225 229 225 223 223 222 222 225 228 228 230 231 228 225 221 217 218 222 224 226 229 234 240 246 249 251 253 258 263 267 269 269 269 268 269 272 275 276 276 275
195 199 208 211 213 215 212 219 224 223 222 222 224 225 224 222 225 233 237 234 233 234 232 228 225 224 226 229 231 233 238 245 250 255 261 265 266 265 266 268 272 276 278 278 278 277 276 277 277
209 207 210 212 215 215 218 219 222 223 223 225 223 223 226 230 230 230 231 232 235 234 234 235 235 234 234 233 235 240 245 252 259 264 268 273 277 280 282 285 286 284 282 280 280 281 282 282 282
211 214 217 217 215 213 212 215 219 220 221 223 227 231 232 230 231 229 228 231 231 230 229 230 233 235 233 232 237 242 246 251 254 258 264 270 274 276 277 278 279 280 281 282 282 283 284 286 288
210 212 213 215 210 213 213 223 225 225 224 228 234 235 235 236 234 233 233 232 230 230 229 230 230 233 233 234 239 244 248 253 257 262 267 269 271 272 274 277 281 283 283 284 287 290 293 294 294
215 214 212 215 211 208 213 231 230 230 230 234 237 237 234 232 232 229 232 233 234 234 233 231 230 232 234 236 238 241 244 251 258 261 265 268 272 274 275 279 283 284 286 288 290 291 292 293 294
216 213 217 213 207 212 220 219 227 225 232 235 238 238 234 222 220 237 231 228 228 230 232 234 233 235 234 236 238 241 245 251 258 264 270 274 277 280 282 283 280 282 283 285 287 289 292 294 294
210 207 206 201 205 238 227 215 234 227 227 231 230 230 226 216 237 246 239 228 224 225 227 231 234 237 239 241 242 244 249 255 263 271 276 277 281 280 277 276 278 281 283 285 286 289 291 292 292
197 190 135 176 192 234 216 216 230 230 222 226 229 232 229 234 246 248 238 230 228 227 228 231 233 234 235 237 241 245 251 257 263 266 271 277 277 276 278 280 283 286 288 290 292 293 294 293 293
195 194 173 182 186 208 187 222 231 234 234 223 223 227 234 242 246 243 234 227 224 222 224 227 230 232 234 237 242 248 253 258 261 266 269 273 275 279 284 286 288 291 292 292 293 293 292 290 288
192 201 208 176 153 166 200 234 240 236 229 228 233 233 237 240 240 237 233 228 224 222 222 223 226 229 232 236 240 245 248 252 256 257 260 265 272 278 283 287 290 292 293 293 293 292 289 287 286
208 202 190 202 166 218 206 248 221 230 230 227 228 233 237 238 237 236 233 230 227 225 224 223 223 225 228 233 236 239 241 242 245 250 255 261 269 276 282 286 288 291 293 294 293 291 291 291 291
195 197 207 209 218 207 217 230 235 234 222 225 230 233 235 237 237 235 232 229 227 225 225 225 225 226 228 231 234 235 237 239 243 248 256 264 272 280 287 292 296 297 295 294 293 294 294 294 294
210 214 211 201 197 212 210 225 204 223 224 229 233 236 236 236 236 236 233 229 227 226 225 222 221 223 225 226 229 233 238 242 248 255 263 273 283 291 297 301 300 299 300 300 300 301 301 299 298